CST,Max TemperatureF,Mean TemperatureF,Min TemperatureF,Max Dew PointF,MeanDew PointF,Min DewpointF,Max Humidity, Mean Humidity, Min Humidity, Max Sea Level PressureIn, Mean Sea Level PressureIn, Min Sea Level PressureIn, Max VisibilityMiles, Mean VisibilityMiles, Min VisibilityMiles, Max Wind SpeedMPH, Mean Wind SpeedMPH, Max Gust SpeedMPH,PrecipitationIn, CloudCover, Events, WindDirDegrees
2014-1-1,12,9,6,7,4,0,85,79,72,30.31,30.21,30.13,10,7,0,20,13,23,0.00,7,Rain-Snow,22
2014-1-2,8,2,-5,0,-5,-11,78,68,52,30.45,30.38,30.28,10,10,10,14,10,20,0.00,3,Rain-Snow,329
2014-1-3,30,10,-11,21,5,-18,78,70,61,30.42,30.03,29.65,10,10,5,31,14,40,0.00,2,,181
2014-1-4,33,22,10,25,15,3,80,72,67,30.12,29.89,29.66,10,10,7,23,16,34,0.00,7,Rain-Snow,301
2014-1-5,10,0,-9,1,-10,-27,72,56,41,30.41,30.25,30.11,10,10,8,30,21,43,0.00,5,Snow,339
2014-1-6,-4,-8,-13,-15,-20,-26,65,56,49,30.42,30.38,30.30,10,10,5,28,17,33,0.00,4,Snow,283
2014-1-7,21,7,-7,5,-3,-17,79,65,50,30.30,30.18,30.07,10,10,9,15,6,12,0.00,5,,183
2014-1-8,15,10,5,5,1,-2,79,68,57,30.44,30.37,30.22,10,10,10,10,5,,0.00,4,,41
2014-1-9,24,14,5,25,10,-2,100,77,67,30.40,30.21,30.02,10,9,2,13,9,,0.00,7,,141
2014-1-10,35,30,26,36,32,25,100,98,93,30.00,29.70,29.52,7,2,0,13,9,17,0.00,8,Fog,179
2014-1-11,37,30,24,32,27,23,100,86,65,29.85,29.71,29.55,10,8,4,21,11,26,0.00,2,,273
2014-1-12,48,38,28,32,30,27,93,69,53,29.81,29.60,29.48,10,10,10,24,13,31,0.00,2,,213
2014-1-13,41,36,30,32,28,25,87,74,56,29.80,29.72,29.60,10,10,10,20,11,28,0.00,4,,272
2014-1-14,39,29,17,34,20,7,81,66,51,30.14,29.90,29.62,10,10,8,36,19,44,0.01,7,Rain-Snow,300
2014-1-15,30,22,15,18,9,5,68,59,47,30.18,30.03,29.72,10,10,5,24,14,31,0.00,6,Snow,261
2014-1-16,39,24,8,30,19,0,87,66,45,29.95,29.72,29.62,10,8,0,36,16,48,0.01,7,Rain-Snow,289
2014-1-17,21,13,5,9,4,-2,79,67,58,30.06,30.01,29.92,10,9,2,25,16,34,0.00,4,Snow,296
2014-1-18,39,26,12,34,18,5,93,73,50,30.03,29.77,29.55,10,10,3,31,14,41,0.00,7,Rain-Snow,275
2014-1-19,50,32,15,30,23,12,86,65,43,30.00,29.78,29.64,10,10,10,21,12,29,0.00,1,,243
2014-1-20,44,28,10,32,25,3,93,74,49,30.28,29.95,29.79,10,8,1,33,12,45,0.00,4,Rain-Snow,307
2014-1-21,15,6,-2,3,-5,-11,79,60,52,30.45,30.30,30.06,10,10,4,24,14,33,0.00,4,Rain-Snow,265
2014-1-22,21,10,-2,12,3,-13,79,63,52,30.48,30.14,29.98,10,9,2,25,15,36,0.00,6,Snow,307
2014-1-23,8,2,-5,-6,-11,-15,66,59,48,30.75,30.64,30.48,10,10,10,20,13,23,0.00,2,,296
2014-1-24,41,23,5,36,8,-6,81,49,41,30.51,29.97,29.62,10,10,6,29,16,41,0.00,5,Rain,229
2014-1-25,42,30,19,36,10,-4,93,52,28,29.98,29.84,29.57,10,10,2,30,18,45,0.00,5,Rain-Snow,301
2014-1-26,48,27,5,34,19,-15,81,55,37,30.18,29.66,29.46,10,10,6,40,20,54,0.00,6,Rain-Snow,293
2014-1-27,6,3,0,-11,-14,-17,60,48,37,30.48,30.38,30.19,10,10,10,31,19,40,0.00,3,Snow,316
2014-1-28,17,6,-4,-6,-9,-13,66,49,32,30.46,30.36,30.24,10,10,10,18,7,25,0.00,2,,262
2014-1-29,39,22,5,12,3,-8,78,46,28,30.24,30.03,29.75,10,10,9,26,11,34,0.00,0,,208
2014-1-30,41,28,14,27,14,3,68,54,38,30.06,29.73,29.51,10,10,3,31,22,40,0.00,6,Rain,254
2014-1-31,17,12,8,10,5,0,79,70,62,30.18,30.08,29.97,10,9,2,15,10,22,0.00,6,Snow,37